Flag for U.S.A. Weather past 2 weeks in Leesburg, Virginia, U.S.A.

Now
36 °F

Drizzle. Mostly cloudy.


Feels Like: 28 °F
Forecast: 38 / 44 °F
Wind: 10 mph from South

Location: Leesburg / Godfrey

Current Time: Mar 4, 2015 at 3:37:20 AM

Latest Report: Mar 4, 2015 at 3:15 AM


Visibility: 5 mi

Pressure: 29.83 "Hg

Humidity: 100%

Dew point: 36 °F

Location of LeesburgLocation

Historic Weather in Leesburg — Graph

°F

Leesburg temperature yesterday

Maximum temperature yesterday: 37 °F (at 10:55 PM)
Minimum temperature yesterday: 28 °F (at 12:15 AM)
Average temperature yesterday: 32 °F

Past Weeks' High & Low Weather Summary

 TemperatureHumidityPressure
High46 °F (Feb 22, 1:55 PM)100% (Feb 17, 2:15 AM)30.87 "Hg (Feb 17, 2:15 AM)
Low0 °F (Feb 24, 5:55 AM)31% (Feb 28, 1:15 PM)29.70 "Hg (Feb 18, 3:35 PM)
Average26 °F67%30.22 "Hg
* Reported Feb 17 2:15 AM — Mar 4 2:15 AM, Leesburg, Weather by CustomWeather, © 2015

Note: Actual official high and low records may vary slightly from our data, if they occured in-between our weather recording intervals... More about our weather records

Advertising

Leesburg weather history for previous 24 hours

 ConditionsComfort  
Time TempWeatherWind HumidityBarometerVisibility
2:15 AM
Wed, Mar 4
37 °FOvercast.6 mph93%29.85 "Hg10 mi
1:55 AM37 °FMostly cloudy.12 mph93%29.85 "Hg10 mi
1:35 AM36 °FMostly cloudy.8 mph100%29.81 "Hg10 mi
1:15 AM37 °FOvercast.5 mph87%29.83 "Hg10 mi
12:55 AM37 °FPassing clouds.10 mph87%29.82 "Hg10 mi
12:35 AM36 °FPassing clouds.8 mph93%29.83 "Hg10 mi
12:15 AM37 °FPassing clouds.9 mph87%29.84 "Hg10 mi
11:55 PM
Tue, Mar 3
37 °FOvercast.10 mph87%29.85 "Hg10 mi
11:35 PM37 °FOvercast.10 mph87%29.86 "Hg10 mi
11:15 PM37 °FOvercast.5 mph87%29.87 "Hg10 mi
10:55 PM37 °FOvercast.10 mph87%29.88 "Hg10 mi
10:15 PM36 °FPassing clouds.6 mph93%29.90 "Hg10 mi
9:55 PM36 °FPassing clouds.10 mph93%29.91 "Hg10 mi
9:15 PM36 °FPassing clouds.12 mph87%29.93 "Hg10 mi
8:55 PM36 °FPassing clouds.14 mph87%29.93 "Hg10 mi
8:35 PM36 °FClear.10 mph81%29.95 "Hg10 mi
8:15 PM36 °FPassing clouds.10 mph81%29.96 "Hg10 mi
7:55 PM36 °FMostly cloudy.12 mph75%29.97 "Hg10 mi
7:35 PM34 °FOvercast.15 mph81%29.98 "Hg10 mi
7:15 PM34 °FOvercast.16 mph81%30.00 "Hg10 mi
6:55 PM34 °FOvercast.14 mph75%30.01 "Hg10 mi
6:15 PM34 °FOvercast.16 mph75%30.03 "Hg10 mi
5:55 PM34 °FOvercast.14 mph75%30.04 "Hg10 mi
5:35 PM32 °FOvercast.13 mph80%30.06 "Hg10 mi
5:15 PM32 °FLight snow. Overcast.14 mph80%30.07 "Hg7 mi
4:55 PM34 °FLight rain. Overcast.15 mph65%30.09 "Hg10 mi
4:15 PM34 °FLight rain. Overcast.13 mph65%30.11 "Hg10 mi
3:55 PM34 °FOvercast.13 mph60%30.13 "Hg10 mi
3:35 PM34 °FOvercast.13 mph60%30.14 "Hg10 mi
3:15 PM34 °FOvercast.14 mph60%30.15 "Hg10 mi
2:35 PM34 °FOvercast.8 mph65%30.19 "Hg10 mi
2:15 PM34 °FOvercast.9 mph65%30.20 "Hg10 mi
1:55 PM32 °FOvercast.9 mph69%30.22 "Hg10 mi
1:35 PM32 °FOvercast.12 mph64%30.24 "Hg10 mi
1:15 PM32 °FOvercast.9 mph69%30.26 "Hg10 mi
12:55 PM32 °FOvercast.14 mph64%30.28 "Hg10 mi
12:35 PM32 °FOvercast.14 mph69%30.30 "Hg10 mi
12:15 PM34 °FLight rain. Cloudy.14 mph65%30.31 "Hg10 mi
11:55 AM34 °FLight rain. Cloudy.14 mph60%30.32 "Hg10 mi
11:35 AM34 °FOvercast.10 mph56%30.34 "Hg10 mi
11:15 AM32 °FLight snow. Mostly cloudy.13 mph60%30.36 "Hg10 mi
10:55 AM32 °FOvercast.9 mph60%30.37 "Hg10 mi
10:35 AM32 °FOvercast.10 mph60%30.38 "Hg10 mi
10:15 AM32 °FOvercast.9 mph60%30.38 "Hg10 mi
9:55 AM32 °FPartly sunny.7 mph60%30.40 "Hg10 mi
9:35 AM32 °FSunny.5 mph60%30.41 "Hg10 mi
9:15 AM32 °FSunny.5 mph60%30.42 "Hg10 mi
8:55 AM32 °FSunny.5 mph60%30.43 "Hg10 mi
8:35 AM30 °FSunny.3 mph64%30.43 "Hg10 mi
8:15 AM30 °FScattered clouds.No wind69%30.43 "Hg10 mi
7:55 AM28 °FBroken clouds.No wind80%30.45 "Hg10 mi
7:35 AM28 °FScattered clouds.No wind74%30.43 "Hg10 mi
7:15 AM28 °FScattered clouds.No wind69%30.42 "Hg10 mi
6:55 AM28 °FSunny.No wind69%30.41 "Hg10 mi
6:15 AM28 °FPassing clouds.3 mph69%30.41 "Hg10 mi
5:55 AM28 °FPassing clouds.No wind69%30.43 "Hg10 mi
5:35 AM28 °FPassing clouds.No wind69%30.42 "Hg10 mi
5:15 AM28 °FPassing clouds.No wind69%30.41 "Hg10 mi
4:55 AM28 °FPassing clouds.No wind69%30.41 "Hg10 mi
4:35 AM28 °FClear.No wind69%30.40 "Hg10 mi
4:15 AM28 °FClear.No wind69%30.39 "Hg10 mi
3:55 AM28 °FClear.5 mph69%30.39 "Hg10 mi
3:35 AM30 °FClear.5 mph64%30.40 "Hg10 mi
3:15 AM28 °FClear.3 mph69%30.40 "Hg10 mi
Weather by CustomWeather, © 2015

See weather overviewHow to use our weather pages